Weather History for Friday Harbor, WA

Change the Weather History Date:

Friday, February 15, 2013

  Actual Average Record
Temperature  
Mean Temperature 44 °F -  
Max Temperature 48 °F 45 °F 52 °F (2003)
Min Temperature 39 °F 34 °F 27 °F (2005)
Degree Days  
Heating Degree Days 22    
Moisture  
Dew Point 41 °F    
Average Humidity 90    
Maximum Humidity 100    
Minimum Humidity 71    
Precipitation  
Precipitation 0.00 in - - ()
Sea Level Pressure  
Sea Level Pressure 30.42 in    
Wind  
Wind Speed 3 mph (NNW)    
Max Wind Speed 8 mph    
Max Gust Speed -    
Visibility 8 miles    
Events      
Averages and records for this station are not official NWS values.
T = Trace of Precipitation, MM = Missing Value Source: NWS Daily Summary

Daily Weather History Graph

Daily Weather History Graph

Search for Another Location

Airport:

Trip Planner

Search our weather history database for the weather conditions in past years. The results will help you decide how hot, cold, wet, or windy it might be!

Date:

Astronomy

Feb. 15, 2013 Rise Set
Actual Time 7:18 AM PST 5:34 PM PST
Civil Twilight 6:46 AM PST 6:06 PM PST
Nautical Twilight 6:09 AM PST 6:43 PM PST
Astronomical Twilight 5:33 AM PST 7:19 PM PST
Moon 9:26 AM PST (2/15) No Moon Set
Length of Visible Light 11h 20m
Length of Day
10h 15m
Waxing Crescent, 31% of the Moon is Illuminated
Feb 15
Waxing Crescent
Feb 17
First Quarter
Feb 25
Full
Mar 4
Last Quarter
Mar 11
New

Hourly Weather History & Observations

Time (PST) Temp. Windchill Dew Point Humidity Pressure Visibility Wind Dir Wind Speed Gust Speed Precip Events Conditions
12:53 AM 44.1 °F 42.5 °F 43.0 °F 96% 30.58 in 6.0 mi North 3.5 mph - N/A   Overcast
1:26 AM 44.6 °F 43.1 °F 42.8 °F 93% 30.57 in 4.0 mi North 3.5 mph - N/A   Overcast
1:53 AM 44.1 °F 42.5 °F 43.0 °F 96% 30.57 in 3.0 mi North 3.5 mph - N/A   Overcast
2:20 AM 44.6 °F 43.1 °F 42.8 °F 93% 30.56 in 5.0 mi North 3.5 mph - N/A   Overcast
2:53 AM 43.0 °F - 43.0 °F 100% 30.55 in 6.0 mi Calm Calm - N/A   Overcast
3:08 AM 42.8 °F - 42.8 °F 100% 30.54 in 7.0 mi Calm Calm - N/A   Overcast
3:33 AM 42.8 °F - 42.8 °F 100% 30.54 in 8.0 mi Calm Calm - N/A   Overcast
3:53 AM 43.0 °F - 42.1 °F 97% 30.54 in 7.0 mi Calm Calm - N/A   Overcast
4:03 AM 42.8 °F 41.1 °F 42.8 °F 100% 30.53 in 6.0 mi North 3.5 mph - N/A   Overcast
4:12 AM 42.8 °F - 42.8 °F 100% 30.53 in 5.0 mi Calm Calm - N/A   Overcast
4:53 AM 43.0 °F 41.3 °F 42.1 °F 97% 30.53 in 5.0 mi WNW 3.5 mph - N/A   Overcast
5:53 AM 43.0 °F 41.3 °F 42.1 °F 97% 30.51 in 5.0 mi North 3.5 mph - N/A   Overcast
6:53 AM 43.0 °F - 42.1 °F 97% 30.51 in 4.0 mi Calm Calm - N/A   Overcast
7:53 AM 43.0 °F 40.3 °F 42.1 °F 97% 30.49 in 3.0 mi North 4.6 mph - N/A   Overcast
8:53 AM 44.1 °F 42.5 °F 43.0 °F 96% 30.49 in 4.0 mi NW 3.5 mph - N/A   Overcast
9:53 AM 45.0 °F 41.2 °F 43.0 °F 93% 30.48 in 6.0 mi North 6.9 mph - N/A   Overcast
10:53 AM 46.9 °F - 42.1 °F 83% 30.46 in 10.0 mi North 5.8 mph - N/A   Overcast
11:34 AM 48.2 °F - 39.2 °F 71% 30.44 in 10.0 mi North 4.6 mph - N/A   Scattered Clouds
11:53 AM 48.0 °F - 42.1 °F 80% 30.44 in 10.0 mi Variable 3.5 mph - N/A   Mostly Cloudy
12:30 PM 46.4 °F 43.5 °F 39.2 °F 76% 30.42 in 10.0 mi North 5.8 mph - N/A   Partly Cloudy
12:53 PM 48.9 °F - 41.0 °F 74% 30.41 in 10.0 mi North 8.1 mph - N/A   Clear
1:53 PM 48.0 °F - 39.9 °F 74% 30.37 in 10.0 mi North 8.1 mph - N/A   Clear
2:53 PM 46.9 °F - 39.9 °F 77% 30.35 in 10.0 mi Variable 6.9 mph - N/A   Clear
3:53 PM 46.9 °F - 39.9 °F 77% 30.33 in 10.0 mi North 6.9 mph - N/A   Clear
4:53 PM 45.0 °F 42.6 °F 39.0 °F 80% 30.30 in 10.0 mi Variable 4.6 mph - N/A   Clear
5:53 PM 43.0 °F 41.3 °F 39.9 °F 89% 30.28 in 10.0 mi WNW 3.5 mph - N/A   Clear
6:53 PM 42.1 °F 40.2 °F 39.0 °F 89% 30.27 in 10.0 mi West 3.5 mph - N/A   Clear
7:53 PM 43.0 °F - 39.9 °F 89% 30.24 in 10.0 mi Calm Calm - N/A   Clear
8:53 PM 42.1 °F 40.2 °F 39.9 °F 92% 30.24 in 10.0 mi NNW 3.5 mph - N/A   Clear
9:53 PM 41.0 °F - 39.9 °F 96% 30.22 in 10.0 mi Calm Calm - N/A   Clear
10:46 PM 39.2 °F 37.0 °F 39.2 °F 100% 30.20 in 10.0 mi West 3.5 mph - N/A   Partly Cloudy
10:53 PM 41.0 °F - 39.0 °F 93% 30.20 in 10.0 mi Calm Calm - N/A   Partly Cloudy
11:53 PM 41.0 °F 39.0 °F 39.0 °F 93% 30.19 in 10.0 mi West 3.5 mph - N/A   Scattered Clouds